This demonstration page uses our WeatherBlox Daily Observations layout. Learn more.

39.92423, -83.80882

Hourly Observations for April 14, 2015

Temp ( °F °C ) Dew Point ( °F °C ) Humidity (%) Winds ( mph kmh ) Pressure ( in mb ) Visibility ( mi km ) Precip ( " mm )
12:56 am 00:56 Partly Cloudy 56 13.3 47 8.3 72 72 NNE 8 13 30.15 1021 7 11.26538 0 0
1:56 am 01:56 Clear 55 12.7 44 6.6 67 67 NNE 8 13 30.16 1021 8 12.87472 0 0
2:56 am 02:56 Clear 53 11.6 44 6.6 72 72 NE 9 15 30.14 1021 7 11.26538 0 0
3:56 am 03:56 Clear 52 11.1 43 6.1 72 72 NE 7 11 30.16 1021 7 11.26538 0 0
4:56 am 04:56 Clear 52 11.1 42 5.5 69 69 NE 8 13 30.16 1021 8 12.87472 0 0
5:56 am 05:56 Clear 50 10 42 5.5 74 74 ENE 8 13 30.15 1021 8 12.87472 0 0
6:56 am 06:56 Clear 49 9.4 42 5.5 77 77 NE 8 13 30.17 1022 7 11.26538 0 0
7:56 am 07:56 Hazy 51 10.5 42 5.5 71 71 NE 10 17 30.18 1022 6 9.65604 0 0
8:56 am 08:56 Hazy 54 12.2 44 6.6 69 69 NE 9 15 30.2 1023 6 9.65604 0 0
9:56 am 09:56 Hazy 55 12.7 44 6.6 67 67 NE 12 19 30.21 1023 6 9.65604 0 0
10:56 am 10:56 Hazy 56 13.3 43 6.1 62 62 NE 10 17 30.22 1024 6 9.65604 0 0
11:56 am 11:56 Hazy 56 13.3 43 6.1 62 62 NE 12 19 30.23 1024 6 9.65604 0 0
12:56 pm 12:56 Hazy 58 14.4 41 5 53 53 NE 15 24 30.22 1023 6 9.65604 0 0
1:56 pm 13:56 Hazy 59 15 39 3.8 47 47 NNE 12 19 30.22 1023 6 9.65604 0 0
2:56 pm 14:56 Hazy 60 15.5 40 4.4 48 48 NNE 15 24 30.18 1022 6 9.65604 0 0
3:56 pm 15:56 Hazy 60 15.5 39 3.8 46 46 NE 15 24 30.17 1022 6 9.65604 0 0
4:56 pm 16:56 Hazy 60 15.5 40 4.4 48 48 NE 13 20 30.16 1021 6 9.65604 0 0
5:56 pm 17:56 Hazy 60 15.5 38 3.3 44 44 NE 9 15 30.18 1022 6 9.65604 0 0
6:56 pm 18:56 Hazy 59 15 38 3.3 46 46 NE 9 15 30.18 1022 6 9.65604 0 0
7:56 pm 19:56 Hazy 57 13.8 40 4.4 53 53 NNE 8 13 30.18 1022 6 9.65604 0 0
8:56 pm 20:56 Clear 56 13.3 40 4.4 55 55 N 12 19 30.19 1023 7 11.26538 0 0
9:56 pm 21:56 Clear 55 12.7 38 3.3 53 53 NNE 14 22 30.2 1023 7 11.26538 0 0
10:56 pm 22:56 Clear 53 11.6 39 3.8 59 59 NNE 13 20 30.22 1024 7 11.26538 0 0
11:56 pm 23:56 Clear 48 8.8 38 3.3 69 69 NE 9 15 30.23 1024 7 11.26538 0 0

Powered by AerisWeather